• In Netherlands
  • List of Countries
  • For 7 days
  • Water Temperature
  • Satellite Maps
  • Weather Map
  • Weather Widgets
  • user-avatar
    Login

    Hourly Weather Oklahoma City

    Today, 25 February, Sunday

    Time Temperature Precipitation Wind Pressure Humidity
    00:00 +4°C° 0 mm 2 mps 729 mmHg 69%
    01:00 +4°C° 0 mm 2 mps 728 mmHg 70%
    02:00 +3°C° 0 mm 2 mps 728 mmHg 70%
    03:00 +3°C° 0 mm 2 mps 729 mmHg 72%
    04:00 +2°C° 0 mm 2 mps 729 mmHg 73%
    05:00 +1°C° 0 mm 3 mps 729 mmHg 74%
    06:00 +2°C° 0 mm 3 mps 730 mmHg 71%
    07:00 +4°C° 0 mm 4 mps 730 mmHg 68%
    08:00 +5°C° 0 mm 4 mps 730 mmHg 65%
    09:00 +7°C° 0 mm 5 mps 730 mmHg 60%
    10:00 +9°C° 0 mm 5 mps 730 mmHg 56%
    11:00 +12°C° 0 mm 5 mps 730 mmHg 52%
    12:00 +14°C° 0 mm 5 mps 729 mmHg 47%
    13:00 +15°C° 0 mm 5 mps 729 mmHg 43%
    14:00 +16°C° 0 mm 5 mps 728 mmHg 38%
    15:00 +15°C° 0 mm 4 mps 729 mmHg 40%
    16:00 +14°C° 0 mm 3 mps 729 mmHg 42%
    17:00 +14°C° 0 mm 2 mps 729 mmHg 44%
    18:00 +13°C° 0 mm 2 mps 729 mmHg 47%
    19:00 +10°C° 0 mm 3 mps 730 mmHg 49%
    20:00 +9°C° 0 mm 3 mps 731 mmHg 52%
    21:00 +8°C° 0 mm 3 mps 731 mmHg 53%
    22:00 +6°C° 0 mm 4 mps 732 mmHg 54%
    23:00 +6°C° 0 mm 4 mps 732 mmHg 55%

    Tomorrow, 26 February, Monday

    Time Temperature Precipitation Wind Pressure Humidity
    00:00 +5°C° 0 mm 4 mps 732 mmHg 57%
    01:00 +5°C° 0 mm 3 mps 732 mmHg 60%
    02:00 +4°C° 0 mm 3 mps 732 mmHg 62%
    03:00 +4°C° 0 mm 3 mps 733 mmHg 64%
    04:00 +4°C° 0 mm 2 mps 733 mmHg 66%
    05:00 +4°C° 0 mm 2 mps 733 mmHg 67%
    06:00 +5°C° 0 mm 2 mps 734 mmHg 66%
    07:00 +7°C° 0 mm 2 mps 734 mmHg 65%
    08:00 +8°C° 0 mm 2 mps 735 mmHg 63%
    09:00 +10°C° 0 mm 2 mps 735 mmHg 56%
    10:00 +13°C° 0 mm 2 mps 735 mmHg 49%
    11:00 +16°C° 0 mm 3 mps 735 mmHg 42%
    12:00 +17°C° 0 mm 3 mps 734 mmHg 40%
    13:00 +18°C° 0 mm 4 mps 733 mmHg 39%
    14:00 +17°C° 0 mm 5 mps 733 mmHg 37%
    15:00 +17°C° 0 mm 4 mps 732 mmHg 44%
    16:00 +15°C° 0 mm 4 mps 732 mmHg 52%
    17:00 +14°C° 0 mm 4 mps 732 mmHg 59%
    18:00 +13°C° 0 mm 4 mps 732 mmHg 62%
    19:00 +12°C° 0 mm 5 mps 732 mmHg 66%
    20:00 +10°C° 0 mm 5 mps 732 mmHg 69%
    21:00 +10°C° 0 mm 5 mps 732 mmHg 71%
    22:00 +10°C° 0 mm 5 mps 732 mmHg 72%
    23:00 +9°C° 0 mm 5 mps 732 mmHg 73%

    Day after tomorrow, 27 February, Tuesday

    Time Temperature Precipitation Wind Pressure Humidity
    00:00 +9°C° 0 mm 5 mps 732 mmHg 74%
    01:00 +9°C° 0 mm 5 mps 731 mmHg 75%
    02:00 +8°C° 0 mm 5 mps 731 mmHg 75%
    03:00 +8°C° 0 mm 5 mps 731 mmHg 77%
    04:00 +8°C° 0 mm 5 mps 731 mmHg 79%
    05:00 +7°C° 0 mm 5 mps 731 mmHg 81%
    06:00 +8°C° 0 mm 6 mps 731 mmHg 79%
    07:00 +9°C° 0 mm 6 mps 731 mmHg 76%
    08:00 +10°C° 0 mm 6 mps 732 mmHg 74%
    09:00 +10°C° 0.7 mm 6 mps 731 mmHg 77%
    10:00 +11°C° 0.7 mm 6 mps 731 mmHg 79%
    11:00 +13°C° 0.7 mm 6 mps 730 mmHg 82%
    12:00 +13°C° 0.3 mm 6 mps 729 mmHg 84%
    13:00 +13°C° 0.3 mm 6 mps 728 mmHg 86%
    14:00 +13°C° 0.3 mm 6 mps 727 mmHg 89%
    15:00 +13°C° 0 mm 5 mps 727 mmHg 90%
    16:00 +13°C° 0 mm 5 mps 726 mmHg 91%
    17:00 +13°C° 0 mm 4 mps 726 mmHg 92%
    18:00 +13°C° 0.1 mm 4 mps 726 mmHg 93%
    19:00 +13°C° 0.1 mm 4 mps 726 mmHg 95%
    20:00 +13°C° 0.1 mm 4 mps 726 mmHg 96%
    21:00 +13°C° 0 mm 4 mps 726 mmHg 97%
    22:00 +14°C° 0 mm 5 mps 725 mmHg 97%
    23:00 +14°C° 0 mm 5 mps 725 mmHg 97%

    28 February, Wednesday

    Time Temperature Precipitation Wind Pressure Humidity
    00:00 +14°C° 0 mm 5 mps 725 mmHg 97%
    01:00 +14°C° 0 mm 4 mps 724 mmHg 97%
    02:00 +15°C° 0 mm 4 mps 724 mmHg 96%
    03:00 +15°C° 0.1 mm 4 mps 723 mmHg 97%
    04:00 +16°C° 0.1 mm 3 mps 723 mmHg 97%
    05:00 +16°C° 0.1 mm 3 mps 723 mmHg 97%
    06:00 +17°C° 0.3 mm 4 mps 723 mmHg 91%
    07:00 +17°C° 0.3 mm 5 mps 723 mmHg 85%
    08:00 +17°C° 0.3 mm 6 mps 723 mmHg 80%
    09:00 +20°C° 0.7 mm 7 mps 722 mmHg 74%
    10:00 +21°C° 0.7 mm 8 mps 721 mmHg 68%
    11:00 +22°C° 0.7 mm 10 mps 721 mmHg 63%
    12:00 +23°C° 0.3 mm 9 mps 720 mmHg 55%
    13:00 +23°C° 0.3 mm 9 mps 719 mmHg 48%
    14:00 +24°C° 0.3 mm 8 mps 718 mmHg 41%
    15:00 +23°C° 0 mm 8 mps 718 mmHg 39%
    16:00 +21°C° 0 mm 7 mps 718 mmHg 38%
    17:00 +20°C° 0 mm 6 mps 718 mmHg 36%
    18:00 +18°C° 0 mm 7 mps 719 mmHg 35%
    19:00 +16°C° 0 mm 7 mps 720 mmHg 35%
    20:00 +15°C° 0 mm 7 mps 720 mmHg 34%
    21:00 +12°C° 0 mm 8 mps 721 mmHg 44%
    22:00 +10°C° 0 mm 9 mps 722 mmHg 54%
    23:00 +7°C° 0 mm 9 mps 722 mmHg 64%

    1 March, Thursday

    Time Temperature Precipitation Wind Pressure Humidity
    00:00 +6°C° 0 mm 9 mps 723 mmHg 63%
    01:00 +5°C° 0 mm 10 mps 724 mmHg 62%
    02:00 +3°C° 0 mm 10 mps 726 mmHg 61%
    03:00 +3°C° 0 mm 10 mps 727 mmHg 61%
    04:00 +2°C° 0 mm 9 mps 728 mmHg 61%
    05:00 +2°C° 0 mm 9 mps 729 mmHg 61%
    06:00 +2°C° 0 mm 8 mps 730 mmHg 56%
    07:00 +4°C° 0 mm 8 mps 730 mmHg 52%
    08:00 +4°C° 0 mm 8 mps 731 mmHg 47%
    09:00 +6°C° 0 mm 7 mps 732 mmHg 41%
    10:00 +8°C° 0 mm 6 mps 732 mmHg 36%
    11:00 +10°C° 0 mm 6 mps 733 mmHg 31%
    12:00 +12°C° 0 mm 5 mps 732 mmHg 29%
    13:00 +12°C° 0 mm 4 mps 732 mmHg 27%
    14:00 +13°C° 0 mm 4 mps 732 mmHg 25%
    15:00 +13°C° 0 mm 3 mps 732 mmHg 28%
    16:00 +13°C° 0 mm 2 mps 732 mmHg 32%
    17:00 +12°C° 0 mm 1 mps 731 mmHg 35%
    18:00 +11°C° 0 mm 1 mps 732 mmHg 36%
    19:00 +10°C° 0 mm 1 mps 732 mmHg 37%
    20:00 +8°C° 0 mm 2 mps 732 mmHg 38%
    21:00 +8°C° 0 mm 2 mps 732 mmHg 40%
    22:00 +7°C° 0 mm 2 mps 732 mmHg 42%
    23:00 +5°C° 0 mm 3 mps 732 mmHg 45%

    2 March, Friday

    Time Temperature Precipitation Wind Pressure Humidity
    00:00 +5°C° 0 mm 3 mps 732 mmHg 47%
    01:00 +5°C° 0 mm 3 mps 732 mmHg 49%
    02:00 +4°C° 0 mm 3 mps 732 mmHg 51%
    03:00 +4°C° 0 mm 3 mps 732 mmHg 53%
    04:00 +3°C° 0 mm 4 mps 732 mmHg 54%
    05:00 +3°C° 0 mm 4 mps 732 mmHg 56%
    06:00 +3°C° 0 mm 5 mps 732 mmHg 54%
    07:00 +5°C° 0 mm 5 mps 732 mmHg 51%
    08:00 +7°C° 0 mm 6 mps 733 mmHg 48%
    09:00 +9°C° 0 mm 6 mps 732 mmHg 44%
    10:00 +10°C° 0 mm 7 mps 732 mmHg 40%
    11:00 +12°C° 0 mm 7 mps 732 mmHg 36%
    12:00 +14°C° 0 mm 7 mps 731 mmHg 36%
    13:00 +15°C° 0 mm 7 mps 730 mmHg 36%
    14:00 +16°C° 0 mm 8 mps 729 mmHg 36%
    15:00 +15°C° 0 mm 7 mps 729 mmHg 41%
    16:00 +14°C° 0 mm 7 mps 728 mmHg 46%
    17:00 +13°C° 0 mm 6 mps 728 mmHg 50%
    18:00 +11°C° 0 mm 6 mps 728 mmHg 54%
    19:00 +11°C° 0 mm 7 mps 728 mmHg 58%
    20:00 +10°C° 0 mm 7 mps 728 mmHg 62%
    21:00 +10°C° 0 mm 7 mps 728 mmHg 64%
    22:00 +10°C° 0 mm 7 mps 728 mmHg 66%
    23:00 +9°C° 0 mm 7 mps 728 mmHg 68%
    Show more